,,,PA_Meas_PMT16A,,PR_Meas_QMR101_102,,RH_Meas_QMH101,,SR_Meas_QMS101,,TA_Meas_QMH101,,GenWind,,GenWind,
date,time,status,PA,status,PR,status,RH,status,SR,status,TA,status,DirAvg,status,SpdAvg,
2010-04-29, 00:00:04,VALID,1003.47,VALID,0,VALID,91.7385,VALID,0,VALID,24.3043,VALID,35,VALID,0.766016,
2010-04-29, 00:01:04,VALID,1003.47,VALID,0,VALID,91.7538,VALID,0,VALID,24.3043,VALID,39,VALID,0.677344,
2010-04-29, 00:02:04,VALID,1003.45,VALID,0,VALID,91.792,VALID,0,VALID,24.3043,VALID,49,VALID,0.883984,
2010-04-29, 00:03:04,VALID,1003.47,VALID,0,VALID,91.8301,VALID,0,VALID,24.2848,VALID,51,VALID,0.628516,
2010-04-29, 00:04:04,VALID,1003.46,VALID,0,VALID,91.8988,VALID,0,VALID,24.2848,VALID,55,VALID,0.694922,
2010-04-29, 00:05:04,VALID,1003.47,VALID,0,VALID,91.9293,VALID,0,VALID,24.2848,VALID,55,VALID,0.46875,
2010-04-29, 00:06:04,VALID,1003.44,VALID,0,VALID,91.9598,VALID,0,VALID,24.3062,VALID,55,VALID,0.553125,
2010-04-29, 00:07:04,VALID,1003.49,VALID,0,VALID,91.9369,VALID,0,VALID,24.2848,VALID,55,VALID,0.529688,
2010-04-29, 00:08:04,VALID,1003.49,VALID,0,VALID,91.8988,VALID,0,VALID,24.2848,VALID,55,VALID,0.517187,
2010-04-29, 00:09:04,VALID,1003.45,VALID,0,VALID,91.8759,VALID,0,VALID,24.3062,VALID,55,VALID,0.515625,
2010-04-29, 00:10:04,VALID,1003.44,VALID,0,VALID,91.9064,VALID,0,VALID,24.2848,VALID,55,VALID,0.494141,
2010-04-29, 00:11:04,VALID,1003.48,VALID,0,VALID,91.8606,VALID,0,VALID,24.3043,VALID,55,VALID,0.496094,
2010-04-29, 00:12:04,VALID,1003.48,VALID,0,VALID,91.8911,VALID,0,VALID,24.3062,VALID,55,VALID,0.542969,
2010-04-29, 00:13:04,VALID,1003.49,VALID,0,VALID,91.9064,VALID,0,VALID,24.3062,VALID,55,VALID,0.621875,
2010-04-29, 00:14:04,VALID,1003.46,VALID,0,VALID,91.9064,VALID,0,VALID,24.3257,VALID,55,VALID,0.420312,
2010-04-29, 00:15:04,VALID,1003.45,VALID,0,VALID,91.9369,VALID,0,VALID,24.3257,VALID,55,VALID,0.452344,
2010-04-29, 00:16:04,VALID,1003.48,VALID,0,VALID,91.9445,VALID,0,VALID,24.3043,VALID,55,VALID,0.402734,
2010-04-29, 00:17:04,VALID,1003.48,VALID,0,VALID,91.9522,VALID,0,VALID,24.3257,VALID,55,VALID,0.378125,
2010-04-29, 00:18:04,VALID,1003.49,VALID,0,VALID,91.9522,VALID,0,VALID,24.3043,VALID,55,VALID,0.285547,
2010-04-29, 00:19:04,VALID,1003.48,VALID,0,VALID,91.9522,VALID,0,VALID,24.3257,VALID,55,VALID,0,
2010-04-29, 00:20:04,VALID,1003.46,VALID,0,VALID,91.9369,VALID,0,VALID,24.3043,VALID,55,VALID,0,
2010-04-29, 00:21:04,VALID,1003.45,VALID,0,VALID,91.9522,VALID,0,VALID,24.3043,VALID,55,VALID,0.00351562,
2010-04-29, 00:22:04,VALID,1003.47,VALID,0,VALID,91.9369,VALID,0,VALID,24.3062,VALID,55,VALID,0,
2010-04-29, 00:23:04,VALID,1003.5,VALID,0,VALID,91.9522,VALID,0,VALID,24.3062,VALID,55,VALID,0,
2010-04-29, 00:24:04,VALID,1003.45,VALID,0,VALID,91.9598,VALID,0,VALID,24.3062,VALID,55,VALID,0,
2010-04-29, 00:25:04,VALID,1003.45,VALID,0,VALID,91.9598,VALID,0,VALID,24.3062,VALID,55,VALID,0,
2010-04-29, 00:26:04,VALID,1003.43,VALID,0,VALID,91.9751,VALID,0,VALID,24.3257,VALID,55,VALID,0,
2010-04-29, 00:27:04,VALID,1003.43,VALID,0,VALID,91.9598,VALID,0,VALID,24.3043,VALID,55,VALID,0,
2010-04-29, 00:28:04,VALID,1003.4,VALID,0,VALID,91.9598,VALID,0,VALID,24.3043,VALID,55,VALID,0,
2010-04-29, 00:29:04,VALID,1003.41,VALID,0,VALID,91.9674,VALID,0,VALID,24.3452,VALID,55,VALID,0,
2010-04-29, 00:30:04,VALID,1003.41,VALID,0,VALID,91.9903,VALID,0,VALID,24.3647,VALID,55,VALID,0,
2010-04-29, 00:31:04,VALID,1003.4,VALID,0,VALID,91.9903,VALID,0,VALID,24.3433,VALID,66,VALID,0,
2010-04-29, 00:32:04,VALID,1003.43,VALID,0,VALID,92.0056,VALID,0,VALID,24.3842,VALID,75,VALID,0.636719,
2010-04-29, 00:33:04,VALID,1003.39,VALID,0,VALID,92.0209,VALID,0,VALID,24.3842,VALID,83,VALID,0.653516,
2010-04-29, 00:34:04,VALID,1003.43,VALID,0,VALID,92.0361,VALID,0,VALID,24.3842,VALID,99,VALID,0.637891,
2010-04-29, 00:35:04,VALID,1003.39,VALID,0,VALID,92.0132,VALID,0,VALID,24.3842,VALID,101,VALID,0.677734,
2010-04-29, 00:36:04,VALID,1003.39,VALID,0,VALID,92.0056,VALID,0,VALID,24.4037,VALID,110,VALID,0.83125,
2010-04-29, 00:37:04,VALID,1003.39,VALID,0,VALID,92.0209,VALID,0,VALID,24.4037,VALID,110,VALID,0.572266,
2010-04-29, 00:38:04,VALID,1003.37,VALID,0,VALID,91.998,VALID,0,VALID,24.3824,VALID,116,VALID,0.919141,
2010-04-29, 00:39:04,VALID,1003.33,VALID,0,VALID,92.0209,VALID,0,VALID,24.4019,VALID,116,VALID,0.485156,
2010-04-29, 00:40:04,VALID,1003.34,VALID,0,VALID,92.0209,VALID,0,VALID,24.3824,VALID,116,VALID,0.327344,
2010-04-29, 00:41:04,VALID,1003.3,VALID,0,VALID,92.0361,VALID,0,VALID,24.4037,VALID,116,VALID,0,
2010-04-29, 00:42:04,VALID,1003.28,VALID,0,VALID,92.0209,VALID,0,VALID,24.4019,VALID,116,VALID,0,
2010-04-29, 00:43:04,VALID,1003.25,VALID,0,VALID,92.0132,VALID,0,VALID,24.4233,VALID,116,VALID,0,
2010-04-29, 00:44:04,VALID,1003.21,VALID,0,VALID,92.0285,VALID,0,VALID,24.4019,VALID,116,VALID,0,
2010-04-29, 00:45:04,VALID,1003.21,VALID,0,VALID,92.0361,VALID,0,VALID,24.4037,VALID,116,VALID,0.00351562,
2010-04-29, 00:46:04,VALID,1003.18,VALID,0,VALID,92.0437,VALID,0,VALID,24.4233,VALID,116,VALID,0.0132813,
2010-04-29, 00:47:04,VALID,1003.18,VALID,0,VALID,92.0819,VALID,0,VALID,24.4037,VALID,116,VALID,0.0363281,
2010-04-29, 00:48:04,VALID,1003.15,VALID,0,VALID,92.0971,VALID,0,VALID,24.4037,VALID,116,VALID,0.0875,
2010-04-29, 00:49:04,VALID,1003.15,VALID,0,VALID,92.1277,VALID,0,VALID,24.4019,VALID,116,VALID,0,
2010-04-29, 00:50:04,VALID,1003.14,VALID,0,VALID,92.1506,VALID,0,VALID,24.4233,VALID,116,VALID,0,
2010-04-29, 00:51:04,VALID,1003.13,VALID,0,VALID,92.12,VALID,0,VALID,24.4019,VALID,116,VALID,0,
2010-04-29, 00:52:04,VALID,1003.12,VALID,0,VALID,92.1429,VALID,0,VALID,24.4233,VALID,116,VALID,0,
2010-04-29, 00:53:04,VALID,1003.11,VALID,0,VALID,92.1429,VALID,0,VALID,24.4233,VALID,116,VALID,0.282031,
2010-04-29, 00:54:04,VALID,1003.07,VALID,0,VALID,92.12,VALID,0,VALID,24.4233,VALID,116,VALID,0.567578,
2010-04-29, 00:55:04,VALID,1003.06,VALID,0,VALID,92.1048,VALID,0,VALID,24.4019,VALID,115,VALID,0.505859,
2010-04-29, 00:56:04,VALID,1003.04,VALID,0,VALID,92.0819,VALID,0,VALID,24.4233,VALID,115,VALID,0.392578,
2010-04-29, 00:57:04,VALID,1003.01,VALID,0,VALID,92.0285,VALID,0,VALID,24.4019,VALID,111,VALID,0.598828,
2010-04-29, 00:58:04,VALID,1002.96,VALID,0,VALID,91.9903,VALID,0,VALID,24.4428,VALID,109,VALID,0.557813,
2010-04-29, 00:59:04,VALID,1002.97,VALID,0,VALID,91.9369,VALID,0,VALID,24.4428,VALID,109,VALID,0.532422,
2010-04-29, 01:00:04,VALID,1002.93,VALID,0,VALID,91.9064,VALID,0,VALID,24.4409,VALID,109,VALID,0.579297,
2010-04-29, 01:01:04,VALID,1002.94,VALID,0,VALID,91.8377,VALID,0,VALID,24.4409,VALID,109,VALID,0.777734,
2010-04-29, 01:02:04,VALID,1002.91,VALID,0,VALID,91.7996,VALID,0,VALID,24.4623,VALID,109,VALID,0.902734,
2010-04-29, 01:03:04,VALID,1002.91,VALID,0,VALID,91.7309,VALID,0,VALID,24.4604,VALID,109,VALID,0.800781,
2010-04-29, 01:04:04,VALID,1002.89,VALID,0,VALID,91.6851,VALID,0,VALID,24.4818,VALID,109,VALID,0.756641,
2010-04-29, 01:05:04,VALID,1002.89,VALID,0,VALID,91.6394,VALID,0,VALID,24.48,VALID,109,VALID,0.638281,
2010-04-29, 01:06:04,VALID,1002.87,VALID,0,VALID,91.6241,VALID,0,VALID,24.4818,VALID,108,VALID,0.285547,
2010-04-29, 01:07:04,VALID,1002.83,VALID,0,VALID,91.6165,VALID,0,VALID,24.5013,VALID,108,VALID,0.407422,
2010-04-29, 01:08:04,VALID,1002.8,VALID,0,VALID,91.6241,VALID,0,VALID,24.5013,VALID,108,VALID,0.371484,
2010-04-29, 01:09:04,VALID,1002.78,VALID,0,VALID,91.6012,VALID,0,VALID,24.4818,VALID,107,VALID,0.00195313,
2010-04-29, 01:10:04,VALID,1002.73,VALID,0,VALID,91.5783,VALID,0,VALID,24.4818,VALID,92,VALID,0,
2010-04-29, 01:11:04,VALID,1002.69,VALID,0,VALID,91.5173,VALID,0,VALID,24.4409,VALID,78,VALID,0,
2010-04-29, 01:12:04,VALID,1002.72,VALID,0,VALID,91.4791,VALID,0,VALID,24.4409,VALID,72,VALID,0,
2010-04-29, 01:13:04,VALID,1002.69,VALID,0,VALID,91.4486,VALID,0,VALID,24.4623,VALID,72,VALID,0,
2010-04-29, 01:14:04,VALID,1002.7,VALID,0,VALID,91.4334,VALID,0,VALID,24.4623,VALID,72,VALID,0,
2010-04-29, 01:15:04,VALID,1002.71,VALID,0,VALID,91.4563,VALID,0,VALID,24.4623,VALID,68,VALID,0,
2010-04-29, 01:16:04,VALID,1002.7,VALID,0,VALID,91.38,VALID,0,VALID,24.4428,VALID,68,VALID,0.171875,
2010-04-29, 01:17:04,VALID,1002.69,VALID,0,VALID,91.3723,VALID,0,VALID,24.4214,VALID,61,VALID,0.573047,
2010-04-29, 01:18:04,VALID,1002.71,VALID,0,VALID,91.3418,VALID,0,VALID,24.4428,VALID,52,VALID,0.427344,
2010-04-29, 01:19:04,VALID,1002.69,VALID,0,VALID,91.3494,VALID,0,VALID,24.4428,VALID,52,VALID,0.473828,
2010-04-29, 01:20:04,VALID,1002.69,VALID,0,VALID,91.3266,VALID,0,VALID,24.4428,VALID,52,VALID,0.434766,
2010-04-29, 01:21:04,VALID,1002.67,VALID,0,VALID,91.3189,VALID,0,VALID,24.4428,VALID,52,VALID,0.326172,
2010-04-29, 01:22:04,VALID,1002.66,VALID,0,VALID,91.3037,VALID,0,VALID,24.4428,VALID,52,VALID,0.0785156,
2010-04-29, 01:23:04,VALID,1002.67,VALID,0,VALID,91.2884,VALID,0,VALID,24.4428,VALID,52,VALID,0,
2010-04-29, 01:24:04,VALID,1002.67,VALID,0,VALID,91.2426,VALID,0,VALID,24.4233,VALID,52,VALID,0,
2010-04-29, 01:25:04,VALID,1002.65,VALID,0,VALID,91.2197,VALID,0,VALID,24.4233,VALID,52,VALID,0,
2010-04-29, 01:26:04,VALID,1002.64,VALID,0,VALID,91.2197,VALID,0,VALID,24.3824,VALID,52,VALID,0,
2010-04-29, 01:27:04,VALID,1002.61,VALID,0,VALID,91.1663,VALID,0,VALID,24.3842,VALID,52,VALID,0,
2010-04-29, 01:28:04,VALID,1002.61,VALID,0,VALID,91.1816,VALID,0,VALID,24.3629,VALID,52,VALID,0,
2010-04-29, 01:29:04,VALID,1002.59,VALID,0,VALID,91.1663,VALID,0,VALID,24.3824,VALID,52,VALID,0,
2010-04-29, 01:30:04,VALID,1002.58,VALID,0,VALID,91.1511,VALID,0,VALID,24.3842,VALID,52,VALID,0,
2010-04-29, 01:31:04,VALID,1002.56,VALID,0,VALID,91.09,VALID,0,VALID,24.4037,VALID,121,VALID,0,
2010-04-29, 01:32:04,VALID,1002.54,VALID,0,VALID,91.0061,VALID,0,VALID,24.3842,VALID,121,VALID,0,
2010-04-29, 01:33:04,VALID,1002.53,VALID,0,VALID,90.9603,VALID,0,VALID,24.4037,VALID,121,VALID,0,
2010-04-29, 01:34:04,VALID,1002.48,VALID,0,VALID,90.884,VALID,0,VALID,24.4233,VALID,121,VALID,0,
2010-04-29, 01:35:04,VALID,1002.48,VALID,0,VALID,90.7849,VALID,0,VALID,24.3824,VALID,121,VALID,0,
2010-04-29, 01:36:04,VALID,1002.44,VALID,0,VALID,90.7085,VALID,0,VALID,24.4037,VALID,121,VALID,0,
2010-04-29, 01:37:04,VALID,1002.43,VALID,0,VALID,90.6323,VALID,0,VALID,24.3824,VALID,121,VALID,0,
2010-04-29, 01:38:04,VALID,1002.4,VALID,0,VALID,90.5407,VALID,0,VALID,24.3842,VALID,121,VALID,0,
2010-04-29, 01:39:04,VALID,1002.4,VALID,0,VALID,90.4339,VALID,0,VALID,24.3842,VALID,134,VALID,0,
2010-04-29, 01:40:04,VALID,1002.39,VALID,0,VALID,90.3652,VALID,0,VALID,24.3629,VALID,134,VALID,0,
2010-04-29, 01:41:04,VALID,1002.36,VALID,0,VALID,90.35,VALID,0,VALID,24.3842,VALID,134,VALID,0,
2010-04-29, 01:42:04,VALID,1002.33,VALID,0,VALID,90.2203,VALID,0,VALID,24.3842,VALID,147,VALID,0.646484,
2010-04-29, 01:43:04,VALID,1002.27,VALID,0,VALID,90.1516,VALID,0,VALID,24.3842,VALID,156,VALID,0.564453,
2010-04-29, 01:44:04,VALID,1002.27,VALID,0,VALID,90.0295,VALID,0,VALID,24.3629,VALID,156,VALID,0.778125,
2010-04-29, 01:45:04,VALID,1002.26,VALID,0,VALID,89.8769,VALID,0,VALID,24.4037,VALID,156,VALID,0.603125,
2010-04-29, 01:46:04,VALID,1002.26,VALID,0,VALID,89.8235,VALID,0,VALID,24.4037,VALID,156,VALID,0.909375,
2010-04-29, 01:47:04,VALID,1002.28,VALID,0,VALID,89.732,VALID,0,VALID,24.4019,VALID,156,VALID,0.620313,
2010-04-29, 01:48:04,VALID,1002.26,VALID,0,VALID,89.5946,VALID,0,VALID,24.4214,VALID,156,VALID,0.716406,
2010-04-29, 01:49:04,VALID,1002.29,VALID,0,VALID,89.4649,VALID,0,VALID,24.4214,VALID,155,VALID,0.735547,
2010-04-29, 01:50:04,VALID,1002.28,VALID,0,VALID,89.3886,VALID,0,VALID,24.4428,VALID,155,VALID,0.830078,
2010-04-29, 01:51:04,VALID,1002.3,VALID,0,VALID,89.32,VALID,0,VALID,24.4214,VALID,155,VALID,0.678125,
2010-04-29, 01:52:04,VALID,1002.25,VALID,0,VALID,89.3276,VALID,0,VALID,24.4214,VALID,155,VALID,0.992578,
2010-04-29, 01:53:04,VALID,1002.28,VALID,0,VALID,89.3581,VALID,0,VALID,24.4409,VALID,156,VALID,0.985156,
2010-04-29, 01:54:04,VALID,1002.27,VALID,0,VALID,89.3581,VALID,0,VALID,24.4409,VALID,155,VALID,1.09219,
2010-04-29, 01:55:04,VALID,1002.26,VALID,0,VALID,89.2818,VALID,0.112286,VALID,24.4409,VALID,151,VALID,0.856641,
2010-04-29, 01:56:04,VALID,1002.25,VALID,0,VALID,89.3047,VALID,0,VALID,24.4214,VALID,148,VALID,0.916797,
2010-04-29, 01:57:04,VALID,1002.22,VALID,0,VALID,89.4649,VALID,0,VALID,24.4214,VALID,147,VALID,0.90625,
2010-04-29, 01:58:04,VALID,1002.23,VALID,0,VALID,89.5565,VALID,0,VALID,24.4233,VALID,147,VALID,0.615234,
2010-04-29, 01:59:04,VALID,1002.24,VALID,0,VALID,89.7396,VALID,0,VALID,24.3629,VALID,147,VALID,0.74375,
2010-04-29, 02:00:04,VALID,1002.27,VALID,0,VALID,89.8998,VALID,0,VALID,24.3433,VALID,146,VALID,0.68125,
2010-04-29, 02:01:04,VALID,1002.22,VALID,0,VALID,90.0295,VALID,0.112286,VALID,24.3238,VALID,146,VALID,0.526172,
2010-04-29, 02:02:04,VALID,1002.23,VALID,0,VALID,90.1363,VALID,0,VALID,24.3062,VALID,146,VALID,0.553906,
2010-04-29, 02:03:04,VALID,1002.23,VALID,0,VALID,90.266,VALID,0.112286,VALID,24.2653,VALID,146,VALID,0.507031,
2010-04-29, 02:04:04,VALID,1002.23,VALID,0,VALID,90.3805,VALID,0,VALID,24.2263,VALID,146,VALID,0.543359,
2010-04-29, 02:05:04,VALID,1002.2,VALID,0,VALID,90.5788,VALID,0,VALID,24.2476,VALID,147,VALID,0.622266,
2010-04-29, 02:06:05,VALID,1002.22,VALID,0,VALID,90.7085,VALID,0,VALID,24.2263,VALID,155,VALID,0.796484,
2010-04-29, 02:07:05,VALID,1002.2,VALID,0,VALID,90.6704,VALID,0,VALID,24.2476,VALID,158,VALID,0.812109,
2010-04-29, 02:08:05,VALID,1002.19,VALID,0,VALID,90.5636,VALID,0,VALID,24.2458,VALID,158,VALID,0.741016,
2010-04-29, 02:09:05,VALID,1002.21,VALID,0,VALID,90.4415,VALID,0,VALID,24.2458,VALID,158,VALID,0.930078,
2010-04-29, 02:10:05,VALID,1002.24,VALID,0,VALID,90.3805,VALID,0,VALID,24.2458,VALID,158,VALID,0.61875,
2010-04-29, 02:11:05,VALID,1002.22,VALID,0,VALID,90.266,VALID,0,VALID,24.2653,VALID,158,VALID,0.825391,
2010-04-29, 02:12:05,VALID,1002.25,VALID,0,VALID,90.2126,VALID,0,VALID,24.2866,VALID,157,VALID,0.79375,
2010-04-29, 02:13:05,VALID,1002.26,VALID,0,VALID,90.2279,VALID,0,VALID,24.2848,VALID,157,VALID,0.864453,
2010-04-29, 02:14:05,VALID,1002.22,VALID,0,VALID,90.2889,VALID,0,VALID,24.2653,VALID,157,VALID,0.603906,
2010-04-29, 02:15:05,VALID,1002.22,VALID,0,VALID,90.2737,VALID,0,VALID,24.2653,VALID,157,VALID,0.773047,
2010-04-29, 02:16:05,VALID,1002.22,VALID,0,VALID,90.2126,VALID,0,VALID,24.2653,VALID,157,VALID,0.654297,
2010-04-29, 02:17:05,VALID,1002.22,VALID,0,VALID,90.2126,VALID,0,VALID,24.2458,VALID,157,VALID,0.441016,
2010-04-29, 02:18:05,VALID,1002.17,VALID,0,VALID,90.205,VALID,0,VALID,24.2263,VALID,159,VALID,0.519531,
2010-04-29, 02:19:05,VALID,1002.22,VALID,0,VALID,90.3118,VALID,0,VALID,24.2263,VALID,159,VALID,0.570703,
2010-04-29, 02:20:05,VALID,1002.19,VALID,0,VALID,90.4186,VALID,0,VALID,24.2476,VALID,159,VALID,0.717188,
2010-04-29, 02:21:05,VALID,1002.15,VALID,0,VALID,90.4263,VALID,0,VALID,24.2263,VALID,159,VALID,0.598828,
2010-04-29, 02:22:05,VALID,1002.17,VALID,0,VALID,90.4263,VALID,0,VALID,24.2476,VALID,159,VALID,0.301172,
2010-04-29, 02:23:05,VALID,1002.13,VALID,0,VALID,90.4339,VALID,0,VALID,24.2263,VALID,159,VALID,0,
2010-04-29, 02:24:05,VALID,1002.13,VALID,0,VALID,90.4568,VALID,0,VALID,24.2263,VALID,159,VALID,0,
2010-04-29, 02:25:05,VALID,1002.09,VALID,0,VALID,90.4568,VALID,0,VALID,24.2067,VALID,159,VALID,0,
2010-04-29, 02:26:05,VALID,1002.07,VALID,0,VALID,90.5026,VALID,0,VALID,24.2067,VALID,159,VALID,0,
2010-04-29, 02:27:05,VALID,1002.06,VALID,0,VALID,90.5788,VALID,0,VALID,24.1872,VALID,159,VALID,0,
2010-04-29, 02:28:05,VALID,1002,VALID,0,VALID,90.5865,VALID,0,VALID,24.1677,VALID,159,VALID,0,
2010-04-29, 02:29:05,VALID,1002.04,VALID,0,VALID,90.5483,VALID,0.112286,VALID,24.1677,VALID,159,VALID,0,
2010-04-29, 02:30:05,VALID,1002.02,VALID,0,VALID,90.5102,VALID,0.112286,VALID,24.1677,VALID,159,VALID,0,
2010-04-29, 02:31:05,VALID,1002.05,VALID,0,VALID,90.556,VALID,0,VALID,24.1677,VALID,159,VALID,0,
2010-04-29, 02:32:05,VALID,1002.02,VALID,0,VALID,90.6551,VALID,0,VALID,24.1482,VALID,159,VALID,0,
2010-04-29, 02:33:05,VALID,1002.02,VALID,0,VALID,90.6857,VALID,0,VALID,24.1482,VALID,159,VALID,0,
2010-04-29, 02:34:05,VALID,1001.99,VALID,0,VALID,90.6323,VALID,0,VALID,24.1287,VALID,159,VALID,0,
2010-04-29, 02:35:05,VALID,1002,VALID,0,VALID,90.7162,VALID,0,VALID,24.1287,VALID,84,VALID,0,
2010-04-29, 02:36:05,VALID,1002.01,VALID,0,VALID,90.7162,VALID,0,VALID,24.1287,VALID,54,VALID,0.482031,
2010-04-29, 02:37:05,VALID,1002.02,VALID,0,VALID,90.5102,VALID,0,VALID,24.0897,VALID,51,VALID,0.557422,
2010-04-29, 02:38:05,VALID,1002.02,VALID,0,VALID,90.7314,VALID,0.112286,VALID,24.0701,VALID,51,VALID,0.373828,
2010-04-29, 02:39:05,VALID,1002.02,VALID,0,VALID,90.8154,VALID,0,VALID,24.0311,VALID,51,VALID,0.265625,
2010-04-29, 02:40:05,VALID,1002.01,VALID,0,VALID,90.9985,VALID,0,VALID,24.0311,VALID,51,VALID,0.00585938,
2010-04-29, 02:41:05,VALID,1002.05,VALID,0,VALID,91.09,VALID,0,VALID,24.0311,VALID,51,VALID,0,
2010-04-29, 02:42:05,VALID,1002.04,VALID,0,VALID,91.174,VALID,0.112286,VALID,24.0116,VALID,51,VALID,0,
2010-04-29, 02:43:05,VALID,1002.06,VALID,0,VALID,91.2121,VALID,0,VALID,23.9921,VALID,51,VALID,0,
2010-04-29, 02:44:05,VALID,1002.06,VALID,0,VALID,91.3571,VALID,0,VALID,24.0134,VALID,51,VALID,0.672266,
2010-04-29, 02:45:05,VALID,1002.05,VALID,0,VALID,91.647,VALID,0,VALID,24.0134,VALID,51,VALID,0.752344,
2010-04-29, 02:46:05,VALID,1002.03,VALID,0,VALID,91.7309,VALID,0,VALID,24.0311,VALID,51,VALID,0.570703,
2010-04-29, 02:47:05,VALID,1002.05,VALID,0,VALID,91.6623,VALID,0,VALID,24.0116,VALID,51,VALID,0.294922,
2010-04-29, 02:48:05,VALID,1002.03,VALID,0,VALID,91.7004,VALID,0,VALID,24.0134,VALID,51,VALID,0.211328,
2010-04-29, 02:49:05,VALID,1002.03,VALID,0,VALID,91.7309,VALID,0,VALID,23.9939,VALID,51,VALID,0.0804688,
2010-04-29, 02:50:05,VALID,1002.03,VALID,0,VALID,91.7691,VALID,0,VALID,23.9726,VALID,51,VALID,0.009375,
2010-04-29, 02:51:05,VALID,1002.01,VALID,0,VALID,91.8683,VALID,0,VALID,23.9744,VALID,51,VALID,0,
2010-04-29, 02:52:05,VALID,1001.99,VALID,0,VALID,91.9903,VALID,0,VALID,23.9939,VALID,51,VALID,0.00273437,
2010-04-29, 02:53:05,VALID,1001.94,VALID,0,VALID,92.059,VALID,0,VALID,23.9939,VALID,51,VALID,0,
2010-04-29, 02:54:05,VALID,1001.97,VALID,0,VALID,92.0971,VALID,0,VALID,23.9726,VALID,51,VALID,0.0882813,
2010-04-29, 02:55:05,VALID,1001.95,VALID,0,VALID,92.1124,VALID,0,VALID,23.9939,VALID,51,VALID,0,
2010-04-29, 02:56:05,VALID,1001.96,VALID,0,VALID,92.1658,VALID,0,VALID,23.9744,VALID,51,VALID,0,
2010-04-29, 02:57:05,VALID,1001.98,VALID,0,VALID,92.1582,VALID,0,VALID,23.9726,VALID,51,VALID,0,
2010-04-29, 02:58:05,VALID,1001.96,VALID,0,VALID,92.1734,VALID,0,VALID,23.9531,VALID,51,VALID,0,
2010-04-29, 02:59:05,VALID,1001.97,VALID,0,VALID,92.1353,VALID,0,VALID,23.9549,VALID,51,VALID,0,
2010-04-29, 03:00:05,VALID,1001.97,VALID,0,VALID,92.2192,VALID,0,VALID,23.9336,VALID,51,VALID,0.46875,
2010-04-29, 03:01:05,VALID,1001.99,VALID,0,VALID,92.2574,VALID,0,VALID,23.9336,VALID,51,VALID,0.500391,
2010-04-29, 03:02:05,VALID,1001.99,VALID,0,VALID,92.265,VALID,0,VALID,23.9744,VALID,67,VALID,0.689844,
2010-04-29, 03:03:05,VALID,1001.99,VALID,0,VALID,92.1963,VALID,0,VALID,23.9549,VALID,78,VALID,0.798437,
2010-04-29, 03:04:05,VALID,1001.95,VALID,0,VALID,92.1734,VALID,0,VALID,23.9336,VALID,86,VALID,0.887891,
2010-04-29, 03:05:05,VALID,1001.93,VALID,0,VALID,92.12,VALID,0,VALID,23.9549,VALID,86,VALID,0.778906,
2010-04-29, 03:06:05,VALID,1001.94,VALID,0,VALID,92.1353,VALID,0,VALID,23.9549,VALID,86,VALID,0.571484,
2010-04-29, 03:07:05,VALID,1001.91,VALID,0,VALID,92.1277,VALID,0,VALID,23.9549,VALID,86,VALID,0.335156,
2010-04-29, 03:08:05,VALID,1001.9,VALID,0,VALID,92.0971,VALID,0,VALID,23.9354,VALID,86,VALID,0,
2010-04-29, 03:09:05,VALID,1001.87,VALID,0,VALID,92.0514,VALID,0,VALID,23.9159,VALID,86,VALID,0,
2010-04-29, 03:10:05,VALID,1001.88,VALID,0,VALID,92.1353,VALID,0,VALID,23.9159,VALID,86,VALID,0,
2010-04-29, 03:11:05,VALID,1001.87,VALID,0,VALID,92.204,VALID,0,VALID,23.8963,VALID,86,VALID,0,
2010-04-29, 03:12:05,VALID,1001.84,VALID,0,VALID,92.2116,VALID,0,VALID,23.8963,VALID,86,VALID,0,
2010-04-29, 03:13:05,VALID,1001.86,VALID,0,VALID,92.2192,VALID,0,VALID,23.8963,VALID,86,VALID,0,
2010-04-29, 03:14:05,VALID,1001.84,VALID,0,VALID,92.2497,VALID,0,VALID,23.8963,VALID,86,VALID,0,
2010-04-29, 03:15:05,VALID,1001.85,VALID,0,VALID,92.2497,VALID,0,VALID,23.8555,VALID,86,VALID,0,
2010-04-29, 03:16:05,VALID,1001.87,VALID,0,VALID,92.265,VALID,0,VALID,23.8768,VALID,86,VALID,0,
2010-04-29, 03:17:05,VALID,1001.83,VALID,0,VALID,92.3031,VALID,0,VALID,23.8573,VALID,86,VALID,0,
2010-04-29, 03:18:05,VALID,1001.83,VALID,0,VALID,92.326,VALID,0,VALID,23.836,VALID,86,VALID,0,
2010-04-29, 03:19:05,VALID,1001.87,VALID,0,VALID,92.3642,VALID,0,VALID,23.836,VALID,86,VALID,0,
2010-04-29, 03:20:05,VALID,1001.84,VALID,0,VALID,92.4023,VALID,0,VALID,23.8573,VALID,86,VALID,0,
2010-04-29, 03:21:05,VALID,1001.83,VALID,0,VALID,92.4634,VALID,0,VALID,23.836,VALID,86,VALID,0,
2010-04-29, 03:22:05,VALID,1001.85,VALID,0,VALID,92.4481,VALID,0,VALID,23.875,VALID,86,VALID,0.452344,
2010-04-29, 03:23:05,VALID,1001.89,VALID,0,VALID,92.4481,VALID,0,VALID,23.8945,VALID,89,VALID,0.539844,
2010-04-29, 03:24:05,VALID,1001.9,VALID,0,VALID,92.4176,VALID,0,VALID,23.914,VALID,89,VALID,0.198047,
2010-04-29, 03:25:05,VALID,1001.91,VALID,0,VALID,92.3947,VALID,0,VALID,23.9336,VALID,89,VALID,0,
2010-04-29, 03:26:05,VALID,1001.94,VALID,0,VALID,92.3413,VALID,0,VALID,23.9336,VALID,89,VALID,0,
2010-04-29, 03:27:05,VALID,1001.89,VALID,0,VALID,92.3031,VALID,0,VALID,23.9531,VALID,89,VALID,0,
2010-04-29, 03:28:05,VALID,1001.9,VALID,0,VALID,92.2116,VALID,0,VALID,23.9726,VALID,89,VALID,0.705469,
2010-04-29, 03:29:05,VALID,1001.92,VALID,0,VALID,92.1277,VALID,0,VALID,23.9939,VALID,91,VALID,0.496484,
2010-04-29, 03:30:05,VALID,1001.9,VALID,0,VALID,92.0819,VALID,0,VALID,23.9921,VALID,91,VALID,0.478906,
2010-04-29, 03:31:05,VALID,1001.88,VALID,0,VALID,92.0132,VALID,0,VALID,23.9921,VALID,103,VALID,0.599609,
2010-04-29, 03:32:05,VALID,1001.87,VALID,0,VALID,91.9522,VALID,0,VALID,24.0329,VALID,129,VALID,0.822656,
2010-04-29, 03:33:05,VALID,1001.86,VALID,0,VALID,91.9445,VALID,0,VALID,24.0329,VALID,129,VALID,0.826172,
2010-04-29, 03:34:05,VALID,1001.87,VALID,0,VALID,91.9369,VALID,0,VALID,24.0311,VALID,131,VALID,0.715234,
2010-04-29, 03:35:05,VALID,1001.85,VALID,0,VALID,91.8988,VALID,0,VALID,24.0525,VALID,131,VALID,0.457812,
2010-04-29, 03:36:05,VALID,1001.88,VALID,0,VALID,91.8759,VALID,0,VALID,24.0311,VALID,131,VALID,0.453516,
2010-04-29, 03:37:05,VALID,1001.86,VALID,0,VALID,91.8683,VALID,0,VALID,24.0311,VALID,131,VALID,0,
2010-04-29, 03:38:05,VALID,1001.89,VALID,0,VALID,91.7843,VALID,0,VALID,24.0525,VALID,131,VALID,0,
2010-04-29, 03:39:05,VALID,1001.87,VALID,0,VALID,91.792,VALID,0,VALID,24.0525,VALID,131,VALID,0,
2010-04-29, 03:40:05,VALID,1001.87,VALID,0,VALID,91.7538,VALID,0,VALID,24.0525,VALID,131,VALID,0,
2010-04-29, 03:41:05,VALID,1001.88,VALID,0,VALID,91.7385,VALID,0,VALID,24.0525,VALID,131,VALID,0,
2010-04-29, 03:42:05,VALID,1001.89,VALID,0,VALID,91.7462,VALID,0,VALID,24.0525,VALID,131,VALID,0,
2010-04-29, 03:43:05,VALID,1001.85,VALID,0,VALID,91.7538,VALID,0,VALID,24.0311,VALID,131,VALID,0,
2010-04-29, 03:44:05,VALID,1001.86,VALID,0,VALID,91.7843,VALID,0,VALID,24.0329,VALID,131,VALID,0,
2010-04-29, 03:45:05,VALID,1001.86,VALID,0,VALID,91.8225,VALID,0,VALID,24.0329,VALID,131,VALID,0,
2010-04-29, 03:46:05,VALID,1001.86,VALID,0,VALID,91.8301,VALID,0,VALID,24.0311,VALID,131,VALID,0,
2010-04-29, 03:47:05,VALID,1001.87,VALID,0,VALID,91.7843,VALID,0,VALID,24.0525,VALID,131,VALID,0,
2010-04-29, 03:48:05,VALID,1001.89,VALID,0,VALID,91.7538,VALID,0,VALID,24.0506,VALID,131,VALID,0,
2010-04-29, 03:49:05,VALID,1001.88,VALID,0,VALID,91.7233,VALID,0,VALID,24.072,VALID,131,VALID,0,
2010-04-29, 03:50:05,VALID,1001.92,VALID,0,VALID,91.7309,VALID,0,VALID,24.0701,VALID,131,VALID,0,
2010-04-29, 03:51:05,VALID,1001.92,VALID,0,VALID,91.6775,VALID,0,VALID,24.0701,VALID,131,VALID,0,